Simultaneous Nadir Overpasses (SNOs) Predictions

Prediction of SNOs between GOES-16 and AQUA Satellite Orbit:

Table of predicted SNOs for the next 14.0 days since TLE Epoch: 1/19/2018
Index Date Time (GOES-16) GOES-16 Lat,Lon AQUA Lat,Lon Distance(km) Time Diff (sec)
1 01/20/2018 18:29:29 -0.03, -75.19 0.44, -73.14 234.60 80
2 01/21/2018 06:50:44 0.03, -75.17 0.71, -78.28 354.03 80
3 01/23/2018 06:38:34 0.03, -75.18 0.09, -75.33 17.13 80
4 01/25/2018 06:23:45 0.04, -75.20 -0.59, -72.38 320.67 80
5 01/25/2018 18:45:10 -0.04, -75.23 -0.51, -77.58 266.82 80
6 01/27/2018 18:35:40 -0.05, -75.24 0.11, -74.62 71.09 80
7 01/29/2018 18:23:30 -0.05, -75.26 0.74, -71.67 409.17 80
8 01/30/2018 06:44:45 0.05, -75.24 0.39, -76.81 178.81 80
9 02/01/2018 06:29:55 0.06, -75.27 -0.24, -73.86 160.03 80
10 02/01/2018 18:51:19 -0.06, -75.30 -0.85, -79.05 427.22 80




NCC Satellite Simultaneous Nadir Overpasses (SNOs) Prediction Service
